Location: Beverley
(50.2667°N, 107.9667°W)
Time: 07:31:34
(UTC+00:00)

EO-79 - Pass Details

Date: 05 July 2022
Orbit: 588 x 603 km, 98.0° (Epoch: 17 August)

Event Time Altitude Azimuth Distance (km) Brightness Sun altitude
Rises 09:38:45 0° 8° (N) 2,861 ? -10.5°
Reaches altitude 10° 09:40:59 10° 2° (N) 1,956 ? -10.3°
Maximum altitude 09:45:01 44° 291° (WNW) 842 ? -9.9°
Enters shadow 09:48:35 13° 222° (SW) 1,768 ? -9.6°
